Home > Weather > Winder > Past weeks

Flag for USA Past Weather in Winder, Georgia, USA — Yesterday and Last 2 Weeks

Now
86 °F

Sunny.


Feels Like: 84 °F
Forecast: 61 / 87 °F
Wind: No wind

Location: Winder-Barrow Airport

Current Time: May 25, 2016 at 1:02:54 PM

Latest Report: May 25, 2016 at 12:15 PM


Visibility: 10 mi

Pressure: 30.28 "Hg

Humidity: 29%

Dew Point: 50 °F

Location of WinderLocation

Past Weather in Winder — Graph

°F

Winder Temperature Yesterday

Maximum temperature yesterday: 84 °F (at 2:35 PM)
Minimum temperature yesterday: 55 °F (at 5:55 AM)
Average temperature yesterday: 71 °F

High & Low Weather Summary for the Past Weeks

 TemperatureHumidityPressure
High88 °F (May 11, 3:55 PM)94% (May 17, 6:35 AM)30.29 "Hg (May 17, 6:35 AM)
Low48 °F (May 16, 6:35 AM)15% (May 15, 4:35 PM)29.92 "Hg (May 14, 5:15 PM)
Average69 °F62%30.09 "Hg
* Reported May 10 12:15 PM — May 25 12:15 PM, Winder, Weather by CustomWeather, © 2016

Note: Actual official high and low records may vary slightly from our data, if they occured in-between our weather recording intervals... More about our weather records

Advertising

Winder Weather History for the Previous 24 Hours

Scroll right to see more
 ConditionsComfort  
Time TempWeatherWind HumidityBarometerVisibility
12:15 PM
Wed, May 25
86 °FSunny.No wind29%30.28 "Hg10 mi
11:35 AM82 °FSunny.No wind35%30.29 "Hg10 mi
11:15 AM82 °FSunny.5 mph35%30.29 "Hg10 mi
10:55 AM81 °FSunny.No wind37%30.29 "Hg10 mi
10:35 AM81 °FSunny.No wind39%30.29 "Hg10 mi
10:15 AM79 °FSunny.5 mph42%30.29 "Hg10 mi
9:55 AM77 °FSunny.No wind44%30.29 "Hg10 mi
9:35 AM77 °FSunny.No wind44%30.28 "Hg10 mi
9:15 AM73 °FSunny.3 mph53%30.28 "Hg10 mi
8:55 AM72 °FSunny.No wind57%30.27 "Hg10 mi
8:35 AM70 °FSunny.No wind60%30.26 "Hg10 mi
8:15 AM68 °FSunny.No wind69%30.25 "Hg10 mi
7:55 AM64 °FSunny.No wind73%30.26 "Hg10 mi
7:35 AM63 °FSunny.No wind77%30.25 "Hg10 mi
7:15 AM63 °FClear.No wind77%30.24 "Hg10 mi
6:55 AM61 °FClear.No wind77%30.23 "Hg10 mi
6:35 AM61 °FClear.No wind77%30.22 "Hg10 mi
6:15 AM61 °FClear.No wind77%30.21 "Hg10 mi
5:55 AM61 °FClear.No wind77%30.22 "Hg10 mi
5:35 AM61 °FClear.No wind83%30.21 "Hg10 mi
5:15 AM61 °FClear.No wind77%30.21 "Hg10 mi
4:55 AM63 °FClear.No wind77%30.21 "Hg10 mi
4:35 AM68 °FClear.No wind60%30.21 "Hg10 mi
4:15 AM66 °FClear.No wind64%30.20 "Hg10 mi
3:55 AM64 °FClear.No wind68%30.20 "Hg10 mi
3:15 AM64 °FClear.No wind73%30.20 "Hg10 mi
2:55 AM63 °FClear.No wind77%30.20 "Hg10 mi
2:35 AM64 °FClear.No wind73%30.20 "Hg10 mi
2:15 AM64 °FClear.No wind73%30.20 "Hg10 mi
1:55 AM68 °FClear.No wind60%30.20 "Hg10 mi
1:35 AM68 °FClear.No wind60%30.20 "Hg10 mi
1:15 AM66 °FClear.No wind68%30.21 "Hg10 mi
12:55 AM66 °FClear.No wind68%30.21 "Hg10 mi
12:35 AM68 °FClear.No wind60%30.20 "Hg10 mi
12:15 AM66 °FClear.No wind68%30.21 "Hg10 mi
11:55 PM
Tue, May 24
68 °FClear.No wind64%30.21 "Hg10 mi
11:35 PM68 °FClear.No wind60%30.21 "Hg10 mi
11:15 PM70 °FClear.No wind57%30.20 "Hg10 mi
10:55 PM68 °FClear.No wind64%30.20 "Hg10 mi
10:35 PM70 °FClear.No wind57%30.20 "Hg10 mi
10:15 PM72 °FClear.No wind53%30.19 "Hg10 mi
9:55 PM72 °FClear.No wind53%30.18 "Hg10 mi
9:35 PM72 °FSunny.No wind57%30.17 "Hg10 mi
9:15 PM73 °FSunny.No wind50%30.17 "Hg10 mi
8:55 PM75 °FSunny.No wind47%30.17 "Hg10 mi
8:15 PM79 °FSunny.No wind39%30.15 "Hg10 mi
7:55 PM81 °FSunny.No wind34%30.15 "Hg10 mi
7:35 PM82 °FSunny.No wind28%30.15 "Hg10 mi
7:15 PM82 °FSunny.No wind28%30.15 "Hg10 mi
6:55 PM84 °FSunny.No wind25%30.15 "Hg10 mi
6:35 PM84 °FSunny.No wind27%30.15 "Hg10 mi
6:15 PM84 °FSunny.No wind25%30.14 "Hg10 mi
5:55 PM84 °FSunny.No wind27%30.15 "Hg10 mi
5:35 PM82 °FScattered clouds.3 mph28%30.14 "Hg10 mi
5:15 PM82 °FScattered clouds.No wind28%30.14 "Hg10 mi
4:55 PM84 °FPartly sunny.No wind27%30.14 "Hg10 mi
4:35 PM84 °FScattered clouds.No wind25%30.15 "Hg10 mi
4:15 PM84 °FSunny.3 mph25%30.15 "Hg10 mi
3:55 PM82 °FSunny.No wind28%30.16 "Hg10 mi
3:35 PM84 °FScattered clouds.5 mph31%30.17 "Hg10 mi
3:15 PM84 °FScattered clouds.No wind29%30.17 "Hg10 mi
2:55 PM82 °FScattered clouds.No wind28%30.17 "Hg10 mi
2:35 PM84 °FScattered clouds.7 mph27%30.18 "Hg10 mi
2:15 PM82 °FScattered clouds.No wind30%30.18 "Hg10 mi
1:55 PM81 °FScattered clouds.5 mph34%30.18 "Hg10 mi
1:35 PM81 °FSunny.No wind39%30.19 "Hg10 mi
1:15 PM81 °FSunny.No wind39%30.19 "Hg10 mi
Weather by CustomWeather, © 2016

See weather overviewHow to use our weather pages